Flag for U.S.A. Weather past 2 weeks in Billings, Montana, U.S.A.

Now
57 °F

Overcast.


Feels Like: 57 °F
Forecast: 46 / 65 °F
Wind: No wind

Location: Billings Logan International Airport

Current Time: Oct 24, 2014 at 11:22:39 AM

Latest Report: Oct 24, 2014 at 10:53 AM


Visibility: 10 mi

Pressure: 30.01 "Hg

Humidity: 47%

Dew point: 37 °F

Location of BillingsLocation

Historic Weather in Billings — Graph

°F

Billings temperature yesterday

Maximum temperature yesterday: 70 °F (at 3:53 PM)
Minimum temperature yesterday: 46 °F (at 2:53 AM)
Average temperature yesterday: 59 °F

Past Weeks' High & Low Weather Summary

 TemperatureHumidityPressure
High79 °F (Oct 20, 2:53 PM)90% (Oct 11, 11:53 PM)30.19 "Hg (Oct 11, 11:53 PM)
Low35 °F (Oct 17, 7:53 AM)13% (Oct 20, 2:53 PM)29.51 "Hg (Oct 15, 4:53 PM)
Average55 °F45%29.92 "Hg
* Reported Oct 9 9:53 AM — Oct 24 9:53 AM, Billings, Weather by CustomWeather, © 2014

Note: Actual official high and low records may vary slightly from our data, if they occured in-between our weather recording intervals... More about our weather records

Advertising

Billings weather history for previous 24 hours

 ConditionsComfort  
Time TempWeatherWind HumidityBarometerVisibility
9:53 AM
Oct 24
56 °FOvercast.3 mph49%30.01 "Hg10 mi
8:53 AM53 °FPartly sunny.3 mph48%30.00 "Hg10 mi
7:53 AM53 °FPassing clouds.3 mph48%29.97 "Hg10 mi
6:53 AM51 °FPassing clouds.No wind56%29.95 "Hg10 mi
5:53 AM51 °FPassing clouds.No wind56%29.91 "Hg10 mi
4:53 AM48 °FPassing clouds.8 mph59%29.89 "Hg10 mi
3:53 AM52 °FPassing clouds.N/A43%29.87 "Hg10 mi
2:53 AM53 °FPassing clouds.8 mph39%29.86 "Hg10 mi
1:53 AM61 °FPassing clouds.14 mph30%29.82 "Hg10 mi
12:53 AM61 °FPassing clouds.10 mph30%29.82 "Hg10 mi
11:53 PM
Oct 23
59 °FPassing clouds.12 mph31%29.83 "Hg10 mi
10:53 PM61 °FPartly cloudy.10 mph27%29.82 "Hg10 mi
9:53 PM60 °FPassing clouds.10 mph27%29.85 "Hg10 mi
8:53 PM60 °FPassing clouds.7 mph27%29.83 "Hg10 mi
7:53 PM61 °FPassing clouds.7 mph27%29.84 "Hg10 mi
6:53 PM65 °FScattered clouds.3 mph25%29.83 "Hg10 mi
5:53 PM67 °FBroken clouds.3 mph24%29.81 "Hg10 mi
4:53 PM70 °FBroken clouds.3 mph21%29.81 "Hg10 mi
3:53 PM70 °FBroken clouds.8 mph21%29.81 "Hg10 mi
2:53 PM69 °FBroken clouds.10 mph22%29.80 "Hg10 mi
1:53 PM69 °FPartly sunny.10 mph22%29.82 "Hg10 mi
12:53 PM68 °FPartly sunny.12 mph22%29.84 "Hg10 mi
11:53 AM64 °FPartly sunny.13 mph25%29.87 "Hg10 mi
Weather by CustomWeather, © 2014

See weather overviewHow to use our weather pages